Roseburg, OR

7:47 PM PDT on September 18, 2019 (GMT -0700)
Roseburg Regional

Weather History for KRBG - July, 2019

Change the Weather History Date:

Thursday, July 11, 2019

  Actual Average Record
Temperature  
Mean Temperature 75 °F 70 °F  
Max Temperature 85 °F 84 °F 106 °F (1961)
Min Temperature 65 °F 56 °F 45 °F (1981)
Degree Days  
Heating Degree Days 0 0  
Month to date heating degree days 2 8  
Since 1 June heating degree days 37 91  
Since 1 July heating degree days 2 8  
Cooling Degree Days 10 5  
Month to date cooling degree days 46 49  
Year to date cooling degree days 197 119  
Since 1 June cooling degree days 168 99  
Growing Degree Days 24 (Base 50)    
Moisture  
Dew Point 57 °F    
Average Humidity 58    
Maximum Humidity 78    
Minimum Humidity 37    
Precipitation  
Precipitation 0.00 in 0.01 in 0.47 in (1976)
Month to date precipitation T 0.21  
Year to date precipitation 21.67 18.97  
Sea Level Pressure  
Sea Level Pressure 30.09 in    
Wind  
Wind Speed 4 mph (NNW)    
Max Wind Speed 14 mph    
Max Gust Speed 21 mph    
Visibility 10 miles    
Events      
T = Trace of Precipitation, MM = Missing Value Source: NWS Daily Summary

Daily Weather History Graph

Daily Weather History Graph

Search for Another Location

Airport or City:

Astronomy

Jul. 11, 2019 Rise Set
Actual Time 5:43 AM PDT 8:53 PM PDT
Civil Twilight 5:09 AM PDT 9:28 PM PDT
Nautical Twilight 4:24 AM PDT 10:12 PM PDT
Astronomical Twilight 3:30 AM PDT 11:06 PM PDT
Moon 4:09 PM PDT (7/11) 2:02 AM PDT (7/11)
Length of Visible Light 16h 19m
Length of Day
15h 09m
Waxing Gibbous, 75% of the Moon is Illuminated
Jul 11
Waxing Gibbous
Jul 16
Full
Jul 24
Last Quarter
Jul 31
New
Aug 7
First Quarter

Hourly Weather History & Observations

Time (PDT) Temp. Heat Index Dew Point Humidity Pressure Visibility Wind Dir Wind Speed Gust Speed Precip Events Conditions
12:53 AM 68.0 °F - 57.9 °F 70% 30.12 in 10.0 mi Calm Calm - N/A   Scattered Clouds
1:53 AM 66.9 °F - 57.9 °F 73% 30.12 in 10.0 mi NW 4.6 mph - N/A   Overcast
2:53 AM 66.9 °F - 57.9 °F 73% 30.11 in 10.0 mi Calm Calm - N/A   Overcast
3:53 AM 66.0 °F - 57.9 °F 75% 30.11 in 10.0 mi Calm Calm - N/A   Overcast
4:53 AM 66.0 °F - 57.9 °F 75% 30.11 in 10.0 mi North 3.5 mph - N/A   Mostly Cloudy
5:53 AM 64.9 °F - 57.9 °F 78% 30.12 in 10.0 mi Calm Calm - N/A   Overcast
6:53 AM 66.0 °F - 57.9 °F 75% 30.13 in 10.0 mi Calm Calm - N/A   Mostly Cloudy
7:09 AM 66.0 °F - 57.9 °F 75% 30.13 in 10.0 mi NNW 4.6 mph - N/A   Overcast
7:53 AM 66.0 °F - 57.9 °F 75% 30.13 in 10.0 mi North 3.5 mph - N/A   Mostly Cloudy
8:29 AM 68.0 °F - 57.9 °F 70% 30.14 in 10.0 mi NNW 5.8 mph - N/A   Mostly Cloudy
8:53 AM 69.1 °F - 59.0 °F 70% 30.13 in 10.0 mi North 6.9 mph - N/A   Mostly Cloudy
9:53 AM 73.0 °F - 59.0 °F 61% 30.11 in 10.0 mi Calm Calm - N/A   Mostly Cloudy
10:53 AM 75.0 °F - 60.1 °F 60% 30.09 in 10.0 mi WSW 4.6 mph - N/A   Scattered Clouds
11:53 AM 77.0 °F - 59.0 °F 54% 30.09 in 10.0 mi Variable 3.5 mph - N/A   Scattered Clouds
12:53 PM 80.1 °F 80.4 °F 57.0 °F 45% 30.07 in 10.0 mi Variable 5.8 mph - N/A   Clear
1:53 PM 82.0 °F 81.4 °F 55.0 °F 39% 30.06 in 10.0 mi Calm Calm - N/A   Partly Cloudy
2:53 PM 84.9 °F 83.9 °F 57.0 °F 38% 30.05 in 10.0 mi North 9.2 mph - N/A   Partly Cloudy
3:53 PM 84.9 °F 83.7 °F 55.9 °F 37% 30.04 in 10.0 mi NNW 10.4 mph - N/A   Clear
4:53 PM 82.0 °F 81.7 °F 57.0 °F 42% 30.04 in 10.0 mi WNW 6.9 mph - N/A   Clear
5:53 PM 82.0 °F 82.0 °F 57.9 °F 44% 30.03 in 10.0 mi Variable 5.8 mph - N/A   Clear
6:53 PM 80.1 °F 80.6 °F 57.9 °F 47% 30.03 in 10.0 mi NW 8.1 mph - N/A   Clear
7:53 PM 78.1 °F - 59.0 °F 52% 30.04 in 10.0 mi North - - N/A   Clear
8:53 PM 75.0 °F - 59.0 °F 57% 30.05 in 10.0 mi NW 6.9 mph - N/A   Clear
9:53 PM 73.9 °F - 55.9 °F 53% 30.06 in 10.0 mi North 5.8 mph - N/A   Clear
10:53 PM 72.0 °F - 53.1 °F 51% 30.06 in 10.0 mi NNE 5.8 mph - N/A   Clear
11:53 PM 70.0 °F - 52.0 °F 53% 30.06 in 10.0 mi North 4.6 mph - N/A   Clear